Total_Precipitation_Accumulation
0.00 0.00 0.01 0.01 0.02 0.02 0.04 0.06 0.09 0.12 0.10 0.12 0.24 0.50 0.76 0.85 1.13 1.11 1.14 1.29 1.43 1.56 1.86 2.27 2.56 3.12 3.74 4.11 4.48 4.60 4.57 4.42 4.20 3.77 3.42 3.17 2.94 2.79 2.53 2.34 2.24 2.11 2.01 2.10
0.01 0.03 0.02 0.01 0.02 0.02 0.04 0.07 0.10 0.14 0.13 0.17 0.33 0.55 0.83 0.86 0.96 1.03 0.95 0.98 1.17 1.53 1.78 2.30 2.59 2.78 3.26 3.78 4.22 4.48 4.61 4.46 4.08 3.63 3.37 3.21 3.15 2.81 2.51 2.46 2.46 2.26 2.26 2.24
0.01 0.02 0.02 0.01 0.02 0.04 0.06 0.07 0.10 0.10 0.13 0.24 0.35 0.74 1.00 0.92 0.89 0.93 0.93 0.99 1.16 1.62 2.06 2.32 2.51 2.67 2.94 3.32 3.61 3.72 3.86 3.80 3.62 3.60 3.56 3.45 3.38 2.95 2.78 2.74 2.70 2.52 2.48 2.40
0.01 0.01 0.02 0.03 0.04 0.04 0.08 0.07 0.06 0.07 0.14 0.34 0.38 0.84 1.26 1.11 0.97 1.04 1.11 1.07 1.35 1.68 1.71 1.86 2.17 2.48 2.64 2.86 3.17 3.40 3.44 3.38 3.27 3.34 3.33 3.17 2.95 2.77 2.84 3.05 2.99 2.69 2.47 2.26
0.03 0.03 0.03 0.04 0.04 0.04 0.06 0.06 0.06 0.09 0.16 0.32 0.40 0.61 1.11 1.15 1.20 1.12 1.15 1.27 1.48 1.52 1.46 1.56 1.76 2.07 2.18 2.45 2.70 2.97 3.23 3.30 3.23 3.24 3.15 3.13 2.99 2.95 2.95 2.87 2.75 2.49 2.25 1.95
0.04 0.04 0.04 0.03 0.03 0.04 0.05 0.06 0.12 0.19 0.31 0.65 0.52 0.52 0.96 1.12 1.01 0.95 1.04 1.08 1.29 1.30 1.30 1.48 1.63 1.85 1.95 2.07 2.19 2.32 2.55 2.82 2.96 2.96 2.91 2.90 2.81 2.75 2.65 2.45 2.26 2.04 1.85 1.61
0.09 0.10 0.08 0.05 0.05 0.06 0.06 0.09 0.39 0.74 0.98 1.03 0.56 0.60 1.05 0.92 0.73 0.75 0.92 0.96 1.03 1.02 1.00 1.22 1.34 1.44 1.56 1.67 1.75 1.87 2.09 2.41 2.50 2.47 2.47 2.56 2.54 2.48 2.36 2.28 2.12 1.90 1.62 1.33
0.16 0.21 0.12 0.07 0.07 0.07 0.08 0.09 0.34 0.62 0.75 0.82 0.67 1.01 1.46 0.97 0.75 0.80 0.82 0.81 0.79 0.78 0.76 0.90 1.11 1.30 1.36 1.39 1.50 1.64 1.86 2.07 2.12 2.03 2.13 2.28 2.28 2.32 2.22 2.25 2.06 1.76 1.51 1.35
0.11 0.11 0.07 0.07 0.10 0.10 0.09 0.08 0.14 0.28 0.37 0.60 0.83 1.13 1.18 0.73 0.64 0.73 0.75 0.74 0.78 0.78 0.73 0.79 0.86 1.01 1.06 1.10 1.20 1.31 1.66 1.88 1.94 1.93 2.03 2.12 2.17 2.14 2.05 1.96 1.82 1.60 1.54 1.46
0.04 0.06 0.08 0.07 0.08 0.10 0.10 0.11 0.16 0.22 0.35 0.58 0.79 1.09 1.25 0.87 0.70 0.52 0.48 0.52 0.49 0.50 0.53 0.57 0.58 0.67 0.79 0.97 1.15 1.27 1.38 1.59 1.77 1.81 1.83 1.86 1.98 1.91 1.80 1.75 1.60 1.42 1.32 1.38
0.04 0.04 0.07 0.08 0.11 0.13 0.13 0.11 0.13 0.17 0.21 0.40 0.79 1.02 0.83 0.69 0.58 0.53 0.50 0.54 0.46 0.40 0.41 0.45 0.53 0.65 0.77 0.87 1.02 1.18 1.23 1.37 1.50 1.58 1.68 1.70 1.67 1.72 1.74 1.63 1.44 1.35 1.34 1.36
0.04 0.04 0.06 0.13 0.18 0.16 0.14 0.11 0.13 0.17 0.17 0.25 0.44 0.66 0.53 0.58 0.59 0.51 0.54 0.60 0.60 0.54 0.47 0.49 0.61 0.73 0.77 0.86 0.94 0.99 1.06 1.18 1.32 1.49 1.69 1.77 1.76 1.77 1.71 1.55 1.40 1.37 1.40 1.44
0.05 0.06 0.11 0.28 0.40 0.26 0.16 0.12 0.12 0.14 0.11 0.19 0.40 0.63 0.44 0.38 0.47 0.63 0.87 1.05 0.84 0.64 0.54 0.57 0.64 0.65 0.68 0.78 0.89 0.85 0.90 1.06 1.24 1.47 1.80 1.95 1.93 1.83 1.74 1.59 1.40 1.33 1.37 1.45
0.08 0.06 0.10 0.30 0.43 0.36 0.26 0.17 0.13 0.11 0.13 0.17 0.25 0.51 0.46 0.43 0.49 0.65 0.83 0.77 0.76 0.69 0.61 0.67 0.66 0.74 0.74 0.72 0.81 0.82 0.88 0.98 1.20 1.38 1.56 1.65 1.56 1.51 1.51 1.45 1.34 1.26 1.27 1.35
0.12 0.08 0.07 0.12 0.21 0.24 0.24 0.22 0.18 0.14 0.12 0.21 0.25 0.37 0.44 0.46 0.57 0.74 0.87 0.86 0.82 0.66 0.57 0.58 0.54 0.62 0.69 0.69 0.78 0.75 0.73 0.78 0.91 1.09 1.19 1.29 1.29 1.27 1.26 1.27 1.26 1.24 1.33 1.37
0.18 0.18 0.14 0.16 0.19 0.24 0.27 0.25 0.18 0.13 0.11 0.16 0.24 0.37 0.49 0.56 0.65 0.71 0.64 0.58 0.55 0.49 0.38 0.37 0.48 0.54 0.56 0.55 0.60 0.56 0.61 0.74 0.88 0.98 1.07 1.23 1.34 1.34 1.29 1.26 1.26 1.25 1.30 1.36
0.24 0.27 0.26 0.25 0.24 0.25 0.34 0.33 0.24 0.15 0.14 0.20 0.32 0.48 0.64 0.54 0.54 0.59 0.55 0.54 0.54 0.49 0.34 0.29 0.35 0.43 0.47 0.50 0.51 0.60 0.73 0.85 0.95 1.07 1.16 1.29 1.35 1.40 1.40 1.34 1.40 1.37 1.41 1.49
0.39 0.41 0.33 0.31 0.42 0.51 0.37 0.30 0.29 0.28 0.26 0.27 0.40 0.42 0.55 0.56 0.61 0.71 0.67 0.63 0.51 0.47 0.37 0.32 0.32 0.35 0.42 0.48 0.56 0.70 0.96 1.15 1.15 1.26 1.34 1.44 1.51 1.50 1.51 1.52 1.54 1.60 1.67 1.69
0.33 0.49 0.47 0.46 0.60 0.51 0.44 0.32 0.36 0.40 0.54 0.55 0.63 0.60 0.54 0.55 0.64 0.69 0.58 0.51 0.51 0.44 0.40 0.39 0.36 0.42 0.51 0.55 0.59 0.78 0.99 1.20 1.30 1.33 1.39 1.49 1.55 1.61 1.69 1.74 1.70 1.74 1.80 1.76
0.34 0.49 0.62 0.58 0.73 0.72 0.61 0.47 0.46 0.57 1.01 0.83 0.76 0.78 0.65 0.60 0.72 0.76 0.70 0.62 0.56 0.51 0.49 0.49 0.48 0.56 0.68 0.74 0.78 0.91 1.03 1.15 1.31 1.37 1.48 1.63 1.80 1.83 1.89 2.03 2.09 2.01 1.93 1.82
0.62 0.70 0.74 0.73 0.79 0.85 0.73 0.67 0.68 1.07 1.35 1.02 0.86 0.83 0.79 0.87 0.87 0.82 0.73 0.72 0.67 0.57 0.56 0.54 0.55 0.64 0.79 0.89 0.99 1.11 1.24 1.33 1.32 1.38 1.52 1.75 1.91 1.99 2.04 2.18 2.26 2.25 2.22 2.18
0.79 0.86 0.86 0.87 1.06 1.21 0.85 0.81 1.19 1.44 1.21 1.20 1.16 1.07 0.96 0.93 0.87 0.80 0.72 0.71 0.65 0.62 0.66 0.66 0.68 0.81 0.96 1.09 1.13 1.20 1.26 1.29 1.31 1.35 1.48 1.61 1.76 1.79 1.87 2.08 2.19 2.26 2.29 2.26
0.83 0.94 1.03 1.15 1.27 1.17 0.98 1.06 1.21 1.32 1.47 1.40 1.28 1.24 1.08 1.03 0.92 0.81 0.71 0.67 0.64 0.62 0.67 0.70 0.76 0.95 1.13 1.28 1.34 1.39 1.28 1.33 1.37 1.43 1.55 1.68 1.76 1.83 1.92 1.97 1.96 2.04 2.13 2.13
0.95 0.85 1.06 1.30 1.36 1.28 1.14 1.00 0.93 1.06 1.17 1.15 1.13 1.10 1.05 1.02 0.95 0.84 0.71 0.62 0.60 0.59 0.55 0.60 0.69 0.79 0.90 1.09 1.25 1.34 1.37 1.41 1.46 1.52 1.56 1.63 1.74 1.77 1.80 1.91 1.98 2.05 2.16 2.26
1.13 1.00 1.22 1.51 1.42 1.31 1.33 1.21 1.08 1.14 1.20 1.12 1.05 1.00 0.97 0.93 0.89 0.75 0.68 0.62 0.59 0.57 0.55 0.59 0.67 0.70 0.77 0.85 0.95 1.04 1.13 1.25 1.32 1.38 1.44 1.50 1.53 1.61 1.68 1.73 1.82 1.83 1.91 1.91
1.18 1.17 1.45 1.78 1.55 1.39 1.39 1.30 1.17 1.20 1.16 1.20 1.24 1.20 0.97 0.85 0.87 0.81 0.72 0.63 0.61 0.60 0.60 0.63 0.66 0.66 0.71 0.75 0.89 0.99 1.08 1.22 1.36 1.46 1.49 1.43 1.40 1.45 1.50 1.53 1.52 1.50 1.43 1.40